Regional Weather Roundup
Issued by NWS

Home | Current Version | Previous Version | Graphics & Text | Print | Product List | Glossary On
Versions: 1 2 3 4 5 6 7 8 9 10 11 12 13 14 15 16 17 18 19 20 21 22 23 24 25 26 27 28 29 30 31 32 33 34 35 36 37 38 39 40 41 42 43 44 45 46 47 48 49 50
000
ASUS45 KTFX 260110
RWRMT
MONTANA REGIONAL WEATHER ROUNDUP
NATIONAL WEATHER SERVICE GREAT FALLS MT
700 PM MDT SUN JUN 25 2017

NOTE: "FAIR" INDICATES FEW OR NO CLOUDS BELOW 12000 FEET WITH NO
SIGNIFICANT WEATHER AND/OR OBSTRUCTIONS TO VISIBILITY.

MTZ001>007-043-260200-
WEST OF THE DIVIDE

CITY           SKY/WX    TMP DP  RH WIND       PRES   REMARKS
KALISPELL        N/A     84  41  21 E3        30.08F
MISSOULA         N/A     85  43  22 W5        30.07F
BUTTE          SUNNY     81  37  20 SE13      30.24F
MULLAN PASS      N/A     76  37  24 CALM      30.26F
ANACONDA         N/A     79  45  29 N6        30.20F
DEER LODGE       N/A     81  34  18 CALM      30.21F
EUREKA           N/A     90  39  17 CALM      30.02F
HAMILTON         N/A     84  43  23 NW5       30.08F
$$

MTZ008-052>055-260200-
SOUTHWEST MONTANA

CITY           SKY/WX    TMP DP  RH WIND       PRES   REMARKS
BOZEMAN        SUNNY     82  29  14 E3        30.21F
DILLON         SUNNY     82  41  23 NE12      30.20F
W YELLOWSTONE  SUNNY     77  25  14 VRB7      30.32S
ENNIS          SUNNY     79  39  24 N9        30.28F
THREE FORKS      N/A     80  42  25 E5        30.17F
$$

MTZ009-010-012-014-046-048-049-054-260200-
EAST SLOPES AND CENTRAL MONTANA

CITY           SKY/WX    TMP DP  RH WIND       PRES   REMARKS
CUT BANK         N/A     79  41  25 E9        30.17F
GREAT FALLS    SUNNY     80  36  20 E8        30.16F
MALMSTROM AFB  SUNNY     78  37  22 E8        30.16F
HELENA         SUNNY     84  37  18 E5        30.14F
CHOTEAU          N/A     77  43  29 CALM      30.19S
$$

MTZ011-013-016-021-045-047-050-051-260200-
NORTH CENTRAL MONTANA

CITY           SKY/WX    TMP DP  RH WIND       PRES   REMARKS
HAVRE          SUNNY     80  35  19 CALM      30.16F
LEWISTOWN      SUNNY     76  36  23 N5        30.22F
N BAR RANCH      N/A     73  34  23 SE9       30.27S
CHINOOK          N/A     79  36  21 W3        30.16F
FORT BENTON      N/A     82  39  21 MISG      30.16F
$$

MTZ017>020-022>027-061-062-260200-
NORTHEAST MONTANA

CITY           SKY/WX    TMP DP  RH WIND       PRES   REMARKS
GLASGOW        SUNNY     78  34  20 N8        30.18F
JORDAN           N/A     79  28  15 VRB3      30.19F
SIDNEY         SUNNY     72  43  35 NE9       30.20F
WOLF POINT     MOSUNNY   80  33  18 NE10      30.18S
MALTA          SUNNY     79  37  22 VRB5      30.17F
PLENTYWOOD       N/A     70  39  32 NE10      30.22S
POPLAR           N/A     75  37  25 NE8       30.19S
$$

MTZ028>42-056>058-260200-
SOUTHCENTRAL AND SOUTHEAST MONTANA

CITY           SKY/WX    TMP DP  RH WIND       PRES   REMARKS
BAKER          SUNNY     74  31  20 N9        30.23S
BILLINGS       MOSUNNY   79  33  19 E10       30.20F
LIVINGSTON     SUNNY     81  40  23 CALM      30.21F
MILES CITY     SUNNY     79  28  15 NE13      30.19F
BIG TIMBER     SUNNY     77  37  24 E8        30.24F
FORSYTH          N/A     79  28  15 N5        30.19S
ROUNDUP          N/A     80  31  17 N6        30.11F
$$

REGIONAL REPORTS...DAKOTAS

CITY           SKY/WX    TMP DP  RH WIND       PRES   REMARKS
WILLISTON      SUNNY     73  41  31 NE12      30.22S
MINOT          SUNNY     65  41  41 N12G20    30.22S
DICKINSON      SUNNY     69  37  30 N14       30.21R
BEACH            N/A     72  37  28 NE9       30.25S
CROSBY           N/A     68  39  34 N7        30.23S
TIOGA            N/A     66  39  37 N8        30.24S
WATFORD CITY     N/A     68  43  40 N7        30.22S
BISMARCK       MOSUNNY   69  43  38 NE12G21   30.21R
GRAND FORKS    MOSUNNY   64  42  44 N16       30.17S
FARGO          PTSUNNY   65  37  35 N15       30.16R
BUFFALO SD       N/A     74  35  24 NE21      30.15S
RAPID CITY     PTSUNNY   78  30  17 N18G28    30.18F
$$

REGIONAL REPORTS...WYOMING/IDAHO/WASHINGTON

CITY           SKY/WX    TMP DP  RH WIND       PRES   REMARKS
GILLETTE       SUNNY     75  32  20 N10G21    30.25S
SHERIDAN       SUNNY     75  39  27 NW12      30.25S
BUFFALO WY     SUNNY     72  38  29 N12       30.30S
CODY           SUNNY     75  38  26 NE10      30.28S
YELLOWSTONE LA   N/A     67  34  29 VRB3      30.41F
IDAHO FALLS    SUNNY     86  37  17 VRB5      30.19F
SALMON         SUNNY     88  34  14 CALM      30.07F
BOISE            N/A     97  28   8 CALM      29.97F HX  91
SPOKANE          N/A     92  36  14 CALM      29.98F
$$

REGIONAL REPORTS...ALBERTA

CITY           SKY/WX    TMP DP  RH WIND       PRES   REMARKS
EDMONTON       SUNNY     75  50  41 SE16G22   30.05F
CALGARY        MOSUNNY   75  46  35 S20G26    30.11F
LETHBRIDGE     PTSUNNY   79  50  36 SE8       30.10F
MEDICINE HAT   MOSUNNY   77  43  29 E10       30.14F
WATERTON GATE    N/A     77  46  33 E8          N/A
MILK RIVER       N/A     79  45  29 S3          N/A
$$

REGIONAL REPORTS...SASKATCHEWAN

CITY           SKY/WX    TMP DP  RH WIND       PRES   REMARKS
SWIFT CURRENT  SUNNY     68  37  32 VRB2      30.23S
REGINA         MOSUNNY   66  37  34 N10       30.24S
SASKATOON      MOSUNNY   70  39  32 VRB2      30.24F
CYPRESS HILLS    N/A     66  37  34 E2          N/A
VAL MARIE        N/A     73  36  25 NE8         N/A
ROCKGLEN         N/A     68  37  32 N6          N/A
ASSINIBOIA       N/A     72  48  43 SE13        N/A
$$



USA.gov is the U.S. government's official web portal to all federal, state and local government web resources and services.